• In Germany
  • List of Countries
  • For 7 days
  • Water Temperature
  • Satellite Maps
  • Weather Map
  • Weather Widgets
  • user-avatar
    Login

    Hourly Weather Newport

    Today, 22 November, Wednesday

    Time Temperature Precipitation Wind Pressure Humidity
    00:00 +13°C° 0 mm 9 mps 750 mmHg 92%
    01:00 +13°C° 0.2 mm 10 mps 749 mmHg 92%
    02:00 +13°C° 0.2 mm 10 mps 749 mmHg 91%
    03:00 +12°C° 0.2 mm 10 mps 748 mmHg 90%
    04:00 +13°C° 0.1 mm 10 mps 747 mmHg 90%
    05:00 +13°C° 0.1 mm 11 mps 747 mmHg 90%
    06:00 +13°C° 0 mm 10 mps 746 mmHg 89%
    07:00 +13°C° 0.1 mm 11 mps 745 mmHg 88%
    08:00 +13°C° 0.1 mm 12 mps 745 mmHg 88%
    09:00 +13°C° 0.1 mm 13 mps 744 mmHg 88%
    10:00 +13°C° 0.2 mm 13 mps 743 mmHg 87%
    11:00 +13°C° 0.2 mm 13 mps 742 mmHg 86%
    12:00 +13°C° 0.2 mm 14 mps 742 mmHg 86%
    13:00 +13°C° 0.9 mm 14 mps 741 mmHg 86%
    14:00 +13°C° 0.9 mm 14 mps 740 mmHg 87%
    15:00 +13°C° 0.9 mm 15 mps 739 mmHg 87%
    16:00 +13°C° 1 mm 14 mps 738 mmHg 88%
    17:00 +13°C° 1 mm 13 mps 738 mmHg 89%
    18:00 +13°C° 1 mm 12 mps 737 mmHg 89%
    19:00 +13°C° 0.4 mm 12 mps 737 mmHg 89%
    20:00 +13°C° 0.4 mm 12 mps 736 mmHg 89%
    21:00 +13°C° 0.4 mm 12 mps 736 mmHg 88%
    22:00 +12°C° 0.7 mm 11 mps 735 mmHg 89%
    23:00 +12°C° 0.7 mm 11 mps 735 mmHg 89%

    Tomorrow, 23 November, Thursday

    Time Temperature Precipitation Wind Pressure Humidity
    00:00 +12°C° 0.7 mm 10 mps 735 mmHg 89%
    01:00 +12°C° 0.5 mm 10 mps 735 mmHg 90%
    02:00 +11°C° 0.5 mm 10 mps 736 mmHg 90%
    03:00 +11°C° 0.5 mm 10 mps 736 mmHg 90%
    04:00 +8°C° 0.1 mm 10 mps 738 mmHg 86%
    05:00 +7°C° 0.1 mm 10 mps 739 mmHg 82%
    06:00 +5°C° 0.1 mm 10 mps 740 mmHg 78%
    07:00 +4°C° 0 mm 11 mps 742 mmHg 76%
    08:00 +6°C° 0 mm 11 mps 743 mmHg 73%
    09:00 +5°C° 0 mm 12 mps 744 mmHg 71%
    10:00 +7°C° 0.1 mm 12 mps 745 mmHg 70%
    11:00 +7°C° 0.1 mm 12 mps 746 mmHg 68%
    12:00 +8°C° 0.1 mm 12 mps 747 mmHg 67%
    13:00 +8°C° 0.1 mm 10 mps 748 mmHg 68%
    14:00 +7°C° 0.1 mm 9 mps 748 mmHg 70%
    15:00 +7°C° 0.1 mm 8 mps 749 mmHg 71%
    16:00 +8°C° 0.2 mm 7 mps 750 mmHg 73%
    17:00 +7°C° 0.2 mm 6 mps 750 mmHg 75%
    18:00 +7°C° 0.2 mm 4 mps 751 mmHg 77%
    19:00 +6°C° 0.4 mm 4 mps 751 mmHg 77%
    20:00 +7°C° 0.4 mm 3 mps 751 mmHg 77%
    21:00 +7°C° 0.4 mm 2 mps 751 mmHg 76%
    22:00 +7°C° 0.1 mm 2 mps 751 mmHg 75%
    23:00 +7°C° 0.1 mm 2 mps 752 mmHg 73%

    Day after tomorrow, 24 November, Friday

    Time Temperature Precipitation Wind Pressure Humidity
    00:00 +7°C° 0.1 mm 2 mps 752 mmHg 71%
    01:00 +6°C° 0 mm 2 mps 752 mmHg 72%
    02:00 +5°C° 0 mm 2 mps 753 mmHg 73%
    03:00 +4°C° 0 mm 3 mps 754 mmHg 74%
    04:00 +5°C° 0.1 mm 2 mps 754 mmHg 75%
    05:00 +5°C° 0.1 mm 1 mps 754 mmHg 76%
    06:00 +5°C° 0.1 mm 1 mps 754 mmHg 76%
    07:00 +6°C° 0.6 mm 1 mps 754 mmHg 76%
    08:00 +6°C° 0.6 mm 1 mps 755 mmHg 77%
    09:00 +6°C° 0.6 mm 2 mps 755 mmHg 77%
    10:00 +6°C° 0.9 mm 2 mps 755 mmHg 78%
    11:00 +5°C° 0.9 mm 3 mps 755 mmHg 78%
    12:00 +5°C° 0.9 mm 3 mps 755 mmHg 79%
    13:00 +5°C° 0 mm 3 mps 755 mmHg 79%
    14:00 +5°C° 0 mm 3 mps 755 mmHg 79%
    15:00 +5°C° 0 mm 3 mps 755 mmHg 79%
    16:00 +4°C° 0 mm 3 mps 756 mmHg 79%
    17:00 +3°C° 0 mm 3 mps 756 mmHg 80%
    18:00 +2°C° 0 mm 3 mps 756 mmHg 80%
    19:00 +2°C° 0 mm 3 mps 756 mmHg 80%
    20:00 +2°C° 0 mm 3 mps 757 mmHg 80%
    21:00 +1°C° 0 mm 4 mps 757 mmHg 80%
    22:00 +1°C° 0 mm 4 mps 758 mmHg 79%
    23:00 +1°C° 0 mm 4 mps 758 mmHg 78%

    25 November, Saturday

    Time Temperature Precipitation Wind Pressure Humidity
    00:00 +1°C° 0 mm 5 mps 758 mmHg 77%
    01:00 +1°C° 0 mm 5 mps 758 mmHg 76%
    02:00 +1°C° 0 mm 6 mps 759 mmHg 75%
    03:00 +1°C° 0 mm 6 mps 759 mmHg 74%
    04:00 +1°C° 0 mm 6 mps 759 mmHg 74%
    05:00 +1°C° 0 mm 6 mps 760 mmHg 74%
    06:00 0°C° 0 mm 7 mps 760 mmHg 74%
    07:00 0°C° 0 mm 7 mps 760 mmHg 73%
    08:00 0°C° 0 mm 7 mps 761 mmHg 73%
    09:00 +2°C° 0 mm 7 mps 761 mmHg 72%
    10:00 +1°C° 0.1 mm 8 mps 762 mmHg 70%
    11:00 +2°C° 0.1 mm 8 mps 762 mmHg 68%
    12:00 +3°C° 0.1 mm 9 mps 762 mmHg 66%
    13:00 +4°C° 0.1 mm 8 mps 762 mmHg 68%
    14:00 +2°C° 0.1 mm 8 mps 762 mmHg 69%
    15:00 +2°C° 0.1 mm 8 mps 763 mmHg 71%
    16:00 +1°C° 0.1 mm 8 mps 763 mmHg 72%
    17:00 +2°C° 0.1 mm 7 mps 763 mmHg 74%
    18:00 0°C° 0.1 mm 7 mps 763 mmHg 76%
    19:00 +2°C° 0.1 mm 7 mps 764 mmHg 76%
    20:00 +2°C° 0.1 mm 7 mps 764 mmHg 76%
    21:00 +2°C° 0.1 mm 7 mps 765 mmHg 75%
    22:00 +1°C° 0 mm 8 mps 765 mmHg 76%
    23:00 +1°C° 0 mm 8 mps 765 mmHg 76%

    26 November, Sunday

    Time Temperature Precipitation Wind Pressure Humidity
    00:00 +1°C° 0 mm 8 mps 765 mmHg 77%
    01:00 +1°C° 0 mm 8 mps 765 mmHg 78%
    02:00 +1°C° 0 mm 8 mps 765 mmHg 80%
    03:00 +2°C° 0 mm 8 mps 766 mmHg 81%
    04:00 +2°C° 0 mm 8 mps 766 mmHg 82%
    05:00 +3°C° 0 mm 7 mps 766 mmHg 83%
    06:00 +3°C° 0 mm 7 mps 766 mmHg 84%
    07:00 +3°C° 0 mm 7 mps 767 mmHg 83%
    08:00 +3°C° 0 mm 7 mps 767 mmHg 82%
    09:00 +4°C° 0 mm 7 mps 768 mmHg 82%
    10:00 +4°C° 0.1 mm 7 mps 768 mmHg 79%
    11:00 +5°C° 0.1 mm 7 mps 768 mmHg 76%
    12:00 +5°C° 0.1 mm 7 mps 768 mmHg 73%
    13:00 +5°C° 0 mm 7 mps 769 mmHg 75%
    14:00 +5°C° 0 mm 7 mps 769 mmHg 76%
    15:00 +5°C° 0 mm 7 mps 769 mmHg 77%
    16:00 +4°C° 0 mm 6 mps 769 mmHg 79%
    17:00 +3°C° 0 mm 6 mps 769 mmHg 81%
    18:00 +3°C° 0 mm 6 mps 769 mmHg 83%
    19:00 +3°C° 0 mm 5 mps 769 mmHg 84%
    20:00 +3°C° 0 mm 5 mps 769 mmHg 84%
    21:00 +5°C° 0 mm 5 mps 769 mmHg 85%
    22:00 +4°C° 0 mm 6 mps 769 mmHg 86%
    23:00 +4°C° 0 mm 6 mps 768 mmHg 86%

    27 November, Monday

    Time Temperature Precipitation Wind Pressure Humidity
    00:00 +4°C° 0 mm 6 mps 768 mmHg 87%
    01:00 +5°C° 0.1 mm 7 mps 767 mmHg 86%
    02:00 +5°C° 0.1 mm 7 mps 766 mmHg 85%
    03:00 +5°C° 0.1 mm 8 mps 766 mmHg 84%
    04:00 +5°C° 0 mm 9 mps 765 mmHg 83%
    05:00 +6°C° 0 mm 9 mps 764 mmHg 82%
    06:00 +6°C° 0 mm 10 mps 763 mmHg 81%
    07:00 +6°C° 0.3 mm 11 mps 762 mmHg 82%
    08:00 +7°C° 0.3 mm 12 mps 761 mmHg 83%
    09:00 +7°C° 0.3 mm 12 mps 760 mmHg 84%
    10:00 +7°C° 2.2 mm 12 mps 759 mmHg 86%
    11:00 +7°C° 2.2 mm 12 mps 759 mmHg 87%
    12:00 +5°C° 2.2 mm 12 mps 758 mmHg 88%
    13:00 +6°C° 0.5 mm 11 mps 758 mmHg 85%
    14:00 +5°C° 0.5 mm 10 mps 759 mmHg 81%
    15:00 +5°C° 0.5 mm 10 mps 759 mmHg 77%
    16:00 +3°C° 0 mm 9 mps 759 mmHg 78%
    17:00 +3°C° 0 mm 9 mps 759 mmHg 78%
    18:00 +2°C° 0 mm 8 mps 760 mmHg 78%
    19:00 +3°C° 0.1 mm 9 mps 760 mmHg 79%
    20:00 +3°C° 0.1 mm 9 mps 760 mmHg 80%
    21:00 +3°C° 0.1 mm 9 mps 760 mmHg 81%
    22:00 +4°C° 0 mm 8 mps 760 mmHg 81%
    23:00 +2°C° 0 mm 8 mps 760 mmHg 82%
    Show more